This is the latest recevied weather packets stored in our database for station/object KC7WRB. If no packets are shown the sender has not sent any weather packets the latest 10 day(s).
| Time | Temp. | Humidity | Pressure | Rain* | Wind** | Luminosity | Snow |
|---|---|---|---|---|---|---|---|
| 1777662391 | 19.44° C | 18% | 1020 hPa | 0 mm | - | 918 W/m² | - |
| 1777662086 | 18.89° C | 18% | 1020.1 hPa | 0 mm | - | 913 W/m² | - |
| 1777661783 | 18.89° C | 19% | 1020.3 hPa | 0 mm | - | 875 W/m² | - |
| 1777661478 | 19.44° C | 18% | 1020.1 hPa | 0 mm | - | 903 W/m² | - |
| 1777661175 | 20.56° C | 18% | 1020.3 hPa | 0 mm | - | 899 W/m² | - |
| 1777660869 | 20.56° C | 18% | 1020.1 hPa | 0 mm | - | 886 W/m² | - |
| 1777660567 | 20.56° C | 17% | 1020.3 hPa | 0 mm | - | 884 W/m² | - |
| 1777660263 | 20.56° C | 18% | 1020.2 hPa | 0 mm | - | 865 W/m² | - |
| 1777659960 | 19.44° C | 19% | 1020.3 hPa | 0 mm | - | 863 W/m² | - |
| 1777659657 | 19.44° C | 19% | 1020.5 hPa | 0 mm | - | 868 W/m² | - |
| 1777659354 | 18.89° C | 19% | 1020.6 hPa | 0 mm | - | 858 W/m² | - |
| 1777659050 | 19.44° C | 19% | 1020.6 hPa | 0 mm | - | 849 W/m² | - |
| 1777658749 | 18.89° C | 20% | 1020.5 hPa | 0 mm | - | 842 W/m² | - |
| 1777658444 | 19.44° C | 19% | 1020.5 hPa | 0 mm | - | 831 W/m² | - |
| 1777658141 | 18.89° C | 20% | 1020.5 hPa | 0 mm | - | 823 W/m² | - |
| 1777657838 | 18.89° C | 21% | 1020.6 hPa | 0 mm | - | 813 W/m² | - |
| 1777657535 | 18.33° C | 19% | 1020.6 hPa | 0 mm | - | 803 W/m² | - |
| 1777657233 | 17.78° C | 20% | 1020.7 hPa | 0 mm | - | 776 W/m² | - |
| 1777656930 | 17.78° C | 21% | 1020.8 hPa | 0 mm | - | 783 W/m² | - |
| 1777656627 | 17.78° C | 21% | 1020.7 hPa | 0 mm | - | 769 W/m² | - |
| 1777656322 | 17.78° C | 21% | 1020.7 hPa | 0 mm | - | 756 W/m² | - |
| 1777656018 | 17.78° C | 22% | 1020.7 hPa | 0 mm | - | 746 W/m² | - |
| 1777655714 | 17.78° C | 22% | 1020.8 hPa | 0 mm | - | 735 W/m² | - |
| 1777655411 | 17.78° C | 22% | 1020.8 hPa | 0 mm | - | 722 W/m² | - |
| 1777655108 | 17.22° C | 22% | 1020.8 hPa | 0 mm | - | 709 W/m² | - |
* Rain latest hour (hover to see other rain measurements)
** Current wind speed in m/s (hover to see current wind gust speed)